EZY76RM EGGP-LEAL

Flight info

Callsign EZY76RM
Flight time 2h 34m
Altitude 37000
Route NANT2V NANTI L8 STAFA P18 TELBA L151 KIDLI UN859 SOPIL BALAN LMG PIMQO AGN ANETO POSSY XIMPE RIMES N860 VLC VLC3N
Aircraft A320/M-V/N

Departure

Time 2026-05-04 10:51
Airport Liverpool John Lennon Airport (EGGP)

Arrival

Time 2026-05-04 13:26
Airport Alicante-Elche Miguel Hernández Airport (LEAL)
Time Latitude Longitude Altitude Speed Heading
2026-05-04 10:25 53.33560 -2.85589 86 ft 0 kts 176°
2026-05-04 10:44 53.33605 -2.85614 90 ft 4 kts 111°
2026-05-04 10:45 53.33608 -2.85643 89 ft 1 kts 85°
2026-05-04 10:45 53.33608 -2.85648 89 ft 0 kts 85°
2026-05-04 10:47 53.33608 -2.85646 89 ft 2 kts 85°
2026-05-04 10:47 53.33607 -2.85543 87 ft 13 kts 110°
2026-05-04 10:47 53.33526 -2.85506 85 ft 12 kts 190°
2026-05-04 10:47 53.33499 -2.85622 88 ft 13 kts 265°
2026-05-04 10:49 53.33294 -2.86538 76 ft 23 kts 85°
2026-05-04 10:49 53.33326 -2.85805 80 ft 98 kts 86°
2026-05-04 10:50 53.33392 -2.84348 91 ft 150 kts 86°
2026-05-04 10:51 53.27994 -2.72114 4039 ft 262 kts 150°
2026-05-04 10:52 53.26396 -2.70607 4984 ft 266 kts 149°
2026-05-04 10:52 53.24792 -2.69015 5841 ft 271 kts 148°
2026-05-04 10:52 53.23171 -2.67344 6710 ft 276 kts 147°
2026-05-04 10:54 53.11092 -2.53602 11038 ft 353 kts 144°
2026-05-04 10:54 53.09082 -2.51198 11689 ft 359 kts 145°
2026-05-04 10:56 52.94433 -2.33980 16394 ft 381 kts 146°
2026-05-04 10:56 52.92283 -2.31474 16998 ft 384 kts 146°
2026-05-04 10:56 52.89937 -2.29361 17573 ft 386 kts 161°
2026-05-04 10:57 52.87373 -2.27972 18155 ft 389 kts 163°
2026-05-04 10:57 52.84776 -2.26618 18683 ft 392 kts 163°
2026-05-04 10:57 52.82167 -2.25270 19198 ft 395 kts 163°
2026-05-04 10:57 52.79537 -2.23920 19693 ft 397 kts 163°
2026-05-04 10:58 52.76891 -2.22566 20215 ft 399 kts 162°
2026-05-04 10:58 52.74230 -2.21203 20713 ft 402 kts 162°
2026-05-04 10:58 52.71552 -2.19826 21205 ft 404 kts 163°
2026-05-04 10:58 52.68862 -2.18436 21712 ft 406 kts 162°
2026-05-04 10:59 52.66156 -2.17037 22157 ft 409 kts 162°
2026-05-04 10:59 52.63425 -2.15626 22598 ft 413 kts 162°
2026-05-04 10:59 52.60675 -2.14211 23069 ft 415 kts 162°
2026-05-04 10:59 52.57949 -2.12810 23524 ft 417 kts 162°
2026-05-04 11:00 52.55167 -2.11381 23901 ft 420 kts 162°
2026-05-04 11:01 52.36033 -1.98739 26398 ft 435 kts 146°
2026-05-04 11:02 52.33481 -1.95972 26713 ft 437 kts 147°
2026-05-04 11:02 52.30936 -1.93224 27029 ft 439 kts 147°
2026-05-04 11:05 51.94536 -1.54403 31793 ft 445 kts 148°
2026-05-04 11:06 51.91942 -1.51666 32137 ft 445 kts 148°
2026-05-04 11:06 51.89350 -1.48942 32473 ft 444 kts 148°
2026-05-04 11:06 51.86759 -1.46224 32818 ft 444 kts 148°
2026-05-04 11:06 51.84170 -1.43511 33170 ft 442 kts 148°
2026-05-04 11:08 51.64682 -1.29830 35109 ft 440 kts 163°
2026-05-04 11:10 51.44459 -1.18520 36700 ft 440 kts 156°
2026-05-04 11:12 51.24915 -1.04167 37029 ft 442 kts 156°
2026-05-04 11:12 51.22114 -1.02126 37029 ft 442 kts 156°
2026-05-04 11:12 51.16523 -0.98053 37030 ft 442 kts 156°
2026-05-04 11:13 51.10930 -0.93993 37018 ft 442 kts 156°
2026-05-04 11:13 51.05334 -0.89938 37017 ft 442 kts 156°
2026-05-04 11:14 50.99745 -0.85905 37023 ft 442 kts 157°
2026-05-04 11:16 50.77988 -0.68013 37035 ft 443 kts 148°
2026-05-04 11:16 50.72814 -0.62728 37037 ft 442 kts 149°
2026-05-04 11:17 50.67635 -0.57480 37036 ft 442 kts 149°
2026-05-04 11:19 50.46906 -0.36622 37035 ft 442 kts 149°
2026-05-04 11:19 50.41757 -0.31465 37033 ft 442 kts 149°
2026-05-04 11:20 50.36566 -0.26282 37040 ft 442 kts 149°
2026-05-04 11:20 50.31378 -0.21132 37031 ft 441 kts 149°
2026-05-04 11:22 50.10633 -0.00852 37022 ft 438 kts 157°
2026-05-04 11:23 50.04866 0.02037 37020 ft 435 kts 167°
2026-05-04 11:25 49.84325 0.10088 37028 ft 435 kts 167°
2026-05-04 11:25 49.78489 0.12371 37028 ft 434 kts 167°
2026-05-04 11:27 49.53125 0.22441 37029 ft 435 kts 167°
2026-05-04 11:28 49.47273 0.24805 37023 ft 435 kts 167°
2026-05-04 11:28 49.41415 0.27154 37004 ft 435 kts 167°
2026-05-04 11:29 49.35565 0.29485 37004 ft 434 kts 167°
2026-05-04 11:29 49.29708 0.31817 37002 ft 434 kts 167°
2026-05-04 11:33 48.88939 0.48933 36980 ft 433 kts 167°
2026-05-04 11:33 48.83117 0.51349 36981 ft 433 kts 167°
2026-05-04 11:34 48.77304 0.53746 36978 ft 433 kts 167°
2026-05-04 11:34 48.71474 0.56050 36976 ft 433 kts 167°
2026-05-04 11:35 48.65673 0.58286 36978 ft 433 kts 167°
2026-05-04 11:35 48.59834 0.60549 36977 ft 433 kts 167°
2026-05-04 11:36 48.54004 0.62826 36981 ft 433 kts 167°
2026-05-04 11:36 48.48181 0.65130 36982 ft 433 kts 167°
2026-05-04 11:37 48.42368 0.67507 36977 ft 433 kts 167°
2026-05-04 11:37 48.36600 0.69866 36984 ft 432 kts 167°
2026-05-04 11:38 48.30797 0.72228 36984 ft 432 kts 167°
2026-05-04 11:38 48.24994 0.74577 36981 ft 432 kts 167°
2026-05-04 11:39 48.19188 0.76876 36983 ft 431 kts 167°
2026-05-04 11:41 47.98924 0.84805 36959 ft 429 kts 167°
2026-05-04 11:41 47.93142 0.87053 36961 ft 429 kts 168°
2026-05-04 11:42 47.87356 0.89305 36969 ft 429 kts 168°
2026-05-04 11:42 47.81581 0.91557 36970 ft 429 kts 168°
2026-05-04 11:43 47.75843 0.93786 36963 ft 429 kts 168°
2026-05-04 11:43 47.70065 0.96015 36967 ft 429 kts 168°
2026-05-04 11:44 47.64292 0.98242 36970 ft 428 kts 168°
2026-05-04 11:44 47.58524 1.00460 36958 ft 428 kts 168°
2026-05-04 11:45 47.52750 1.02671 36960 ft 428 kts 168°
2026-05-04 11:45 47.46980 1.04877 36963 ft 429 kts 168°
2026-05-04 11:46 47.41177 1.06389 36962 ft 425 kts 181°
2026-05-04 11:46 47.35274 1.06258 36959 ft 424 kts 182°
2026-05-04 11:47 47.29383 1.06121 36963 ft 424 kts 182°
2026-05-04 11:47 47.23483 1.05987 36965 ft 424 kts 182°
2026-05-04 11:48 47.17574 1.05846 36966 ft 424 kts 182°
2026-05-04 11:48 47.11674 1.05707 36958 ft 424 kts 183°
2026-05-04 11:49 47.05772 1.05572 36963 ft 424 kts 182°
2026-05-04 11:49 46.99874 1.05419 36963 ft 424 kts 183°
2026-05-04 11:50 46.94020 1.05156 36958 ft 424 kts 184°
2026-05-04 11:50 46.88123 1.04873 36961 ft 424 kts 184°
2026-05-04 11:51 46.82225 1.04619 36964 ft 424 kts 184°
2026-05-04 11:51 46.76332 1.04373 36967 ft 423 kts 184°
2026-05-04 11:52 46.70445 1.04129 36956 ft 423 kts 184°
2026-05-04 11:52 46.64565 1.03879 36957 ft 423 kts 184°
2026-05-04 11:53 46.58682 1.03633 36953 ft 423 kts 184°
2026-05-04 11:53 46.52803 1.03376 36948 ft 422 kts 184°
2026-05-04 11:55 46.29327 1.03093 36960 ft 422 kts 182°
2026-05-04 11:56 46.23461 1.03025 36958 ft 421 kts 182°
2026-05-04 11:56 46.17636 1.02955 36960 ft 421 kts 182°
2026-05-04 11:57 46.11772 1.02891 36961 ft 421 kts 183°
2026-05-04 11:57 46.05910 1.02830 36968 ft 421 kts 183°
2026-05-04 11:58 46.00045 1.02762 36974 ft 421 kts 183°
2026-05-04 11:58 45.94182 1.02687 36972 ft 421 kts 183°
2026-05-04 11:59 45.88327 1.02618 36983 ft 421 kts 183°
2026-05-04 11:59 45.82476 1.02586 36984 ft 421 kts 180°
2026-05-04 12:00 45.76655 1.03822 36971 ft 424 kts 173°
2026-05-04 12:00 45.70881 1.05320 36973 ft 423 kts 173°
2026-05-04 12:01 45.65080 1.06810 36958 ft 423 kts 173°
2026-05-04 12:02 45.44779 1.11997 36953 ft 424 kts 173°
2026-05-04 12:03 45.38974 1.13476 36958 ft 423 kts 173°
2026-05-04 12:03 45.33208 1.14948 36945 ft 423 kts 173°
2026-05-04 12:04 45.27404 1.16421 36927 ft 423 kts 174°
2026-05-04 12:04 45.21606 1.17879 36945 ft 423 kts 174°
2026-05-04 12:05 45.15797 1.18928 36940 ft 418 kts 184°
2026-05-04 12:05 45.10088 1.17814 36945 ft 414 kts 193°
2026-05-04 12:06 45.04424 1.16352 36951 ft 414 kts 193°
2026-05-04 12:06 44.98754 1.14904 36943 ft 414 kts 193°
2026-05-04 12:07 44.93089 1.13457 36957 ft 413 kts 193°
2026-05-04 12:07 44.87427 1.12014 36958 ft 413 kts 193°
2026-05-04 12:08 44.81770 1.10574 36956 ft 413 kts 193°
2026-05-04 12:08 44.76119 1.09138 36955 ft 413 kts 193°
2026-05-04 12:09 44.70505 1.07708 36956 ft 413 kts 193°
2026-05-04 12:09 44.64857 1.06272 36952 ft 412 kts 193°
2026-05-04 12:10 44.59208 1.04853 36936 ft 412 kts 193°
2026-05-04 12:10 44.53561 1.03430 36942 ft 412 kts 193°
2026-05-04 12:11 44.47922 1.02012 36951 ft 412 kts 193°
2026-05-04 12:11 44.42274 1.00588 36948 ft 412 kts 193°
2026-05-04 12:12 44.36638 0.99169 36925 ft 411 kts 193°
2026-05-04 12:12 44.31001 0.97748 36931 ft 411 kts 193°
2026-05-04 12:14 44.08471 0.92151 36928 ft 412 kts 193°
2026-05-04 12:15 44.02825 0.90749 36940 ft 412 kts 193°
2026-05-04 12:15 43.97184 0.89358 36930 ft 412 kts 193°
2026-05-04 12:16 43.91536 0.87971 36937 ft 412 kts 193°
2026-05-04 12:16 43.85892 0.86562 36942 ft 412 kts 194°
2026-05-04 12:17 43.80269 0.85040 36935 ft 411 kts 194°
2026-05-04 12:17 43.74694 0.83510 36943 ft 411 kts 194°
2026-05-04 12:18 43.69077 0.81997 36953 ft 411 kts 194°
2026-05-04 12:18 43.63465 0.80512 36955 ft 411 kts 194°
2026-05-04 12:19 43.58800 0.79277 36955 ft 410 kts 194°
2026-05-04 12:19 43.53204 0.77795 36962 ft 409 kts 194°
2026-05-04 12:20 43.47618 0.76311 36987 ft 409 kts 194°
2026-05-04 12:20 43.42023 0.74829 36952 ft 409 kts 194°
2026-05-04 12:21 43.36438 0.73360 36965 ft 408 kts 194°
2026-05-04 12:21 43.30858 0.71891 36969 ft 408 kts 194°
2026-05-04 12:22 43.25292 0.70424 36969 ft 407 kts 194°
2026-05-04 12:22 43.19766 0.68974 36955 ft 407 kts 194°
2026-05-04 12:23 43.14209 0.67511 36956 ft 406 kts 194°
2026-05-04 12:23 43.08654 0.66055 36958 ft 406 kts 194°
2026-05-04 12:24 43.03102 0.64609 36961 ft 406 kts 194°
2026-05-04 12:24 42.97559 0.63163 36944 ft 405 kts 195°
2026-05-04 12:25 42.92059 0.61735 36952 ft 404 kts 195°
2026-05-04 12:25 42.86525 0.60302 36964 ft 404 kts 195°
2026-05-04 12:26 42.81002 0.58865 36962 ft 403 kts 194°
2026-05-04 12:26 42.75467 0.57434 36974 ft 405 kts 194°
2026-05-04 12:27 42.69946 0.55929 36951 ft 400 kts 200°
2026-05-04 12:27 42.64884 0.52995 36972 ft 399 kts 208°
2026-05-04 12:28 42.59872 0.49781 36956 ft 399 kts 208°
2026-05-04 12:28 42.54850 0.46582 36974 ft 399 kts 207°
2026-05-04 12:29 42.49833 0.43384 36982 ft 398 kts 207°
2026-05-04 12:29 42.44821 0.40191 36989 ft 398 kts 208°
2026-05-04 12:30 42.39808 0.37000 37002 ft 398 kts 207°
2026-05-04 12:30 42.34809 0.33827 36997 ft 397 kts 207°
2026-05-04 12:31 42.29800 0.30650 36998 ft 398 kts 208°
2026-05-04 12:31 42.24810 0.27485 36992 ft 399 kts 207°
2026-05-04 12:32 42.17285 0.22730 36966 ft 397 kts 208°
2026-05-04 12:33 42.12285 0.19588 36975 ft 396 kts 208°
2026-05-04 12:33 42.07268 0.16511 36978 ft 398 kts 203°
2026-05-04 12:34 42.01802 0.15041 36974 ft 404 kts 191°
2026-05-04 12:34 41.96200 0.14211 36963 ft 405 kts 191°
2026-05-04 12:35 41.90597 0.13385 36977 ft 405 kts 191°
2026-05-04 12:35 41.85004 0.12551 36973 ft 404 kts 191°
2026-05-04 12:36 41.79421 0.11717 36959 ft 402 kts 192°
2026-05-04 12:36 41.73892 0.10883 36932 ft 402 kts 192°
2026-05-04 12:37 41.68335 0.10060 36935 ft 402 kts 192°
2026-05-04 12:37 41.62768 0.09243 36938 ft 402 kts 192°
2026-05-04 12:38 41.57204 0.08420 36936 ft 402 kts 192°
2026-05-04 12:38 41.51642 0.07591 36915 ft 402 kts 192°
2026-05-04 12:39 41.46069 0.06766 36922 ft 402 kts 192°
2026-05-04 12:39 41.40493 0.05944 36923 ft 403 kts 192°
2026-05-04 12:40 41.34924 0.05121 36926 ft 403 kts 192°
2026-05-04 12:40 41.29384 0.04301 36906 ft 403 kts 192°
2026-05-04 12:41 41.23806 0.03484 36913 ft 403 kts 192°
2026-05-04 12:41 41.18230 0.02670 36920 ft 403 kts 192°
2026-05-04 12:42 41.12652 0.01857 36911 ft 403 kts 192°
2026-05-04 12:42 41.07075 0.01040 36922 ft 403 kts 192°
2026-05-04 12:43 41.01499 0.00219 36928 ft 403 kts 192°
2026-05-04 12:43 40.95919 -0.00591 36926 ft 403 kts 192°
2026-05-04 12:44 40.90342 -0.01404 36906 ft 403 kts 192°
2026-05-04 12:44 40.84749 -0.02212 36912 ft 404 kts 192°
2026-05-04 12:45 40.79198 -0.03018 36920 ft 404 kts 192°
2026-05-04 12:45 40.73606 -0.03829 36926 ft 404 kts 192°
2026-05-04 12:46 40.68008 -0.04629 36930 ft 405 kts 192°
2026-05-04 12:46 40.62409 -0.05430 36942 ft 405 kts 192°
2026-05-04 12:47 40.56814 -0.06254 36965 ft 403 kts 194°
2026-05-04 12:47 40.51458 -0.08116 36967 ft 398 kts 201°
2026-05-04 12:48 40.46156 -0.10222 36956 ft 397 kts 201°
2026-05-04 12:48 40.40863 -0.12314 36984 ft 398 kts 201°
2026-05-04 12:49 40.35563 -0.14407 36995 ft 397 kts 201°
2026-05-04 12:49 40.30303 -0.16482 37002 ft 397 kts 201°
2026-05-04 12:50 40.25355 -0.19472 37001 ft 390 kts 218°
2026-05-04 12:50 40.21506 -0.24398 36975 ft 387 kts 229°
2026-05-04 12:51 40.17935 -0.29684 36984 ft 388 kts 229°
2026-05-04 12:51 40.14350 -0.34959 36973 ft 388 kts 229°
2026-05-04 12:51 40.12566 -0.37588 36526 ft 386 kts 229°
2026-05-04 12:52 40.10786 -0.40213 36065 ft 387 kts 229°
2026-05-04 12:52 40.08997 -0.42846 35438 ft 387 kts 229°
2026-05-04 12:52 40.07209 -0.45474 35025 ft 387 kts 229°
2026-05-04 12:52 40.05442 -0.48068 34551 ft 388 kts 228°
2026-05-04 12:53 40.03646 -0.50704 34071 ft 389 kts 228°
2026-05-04 12:53 40.01846 -0.53345 33575 ft 389 kts 229°
2026-05-04 12:53 40.00042 -0.55986 33126 ft 390 kts 229°
2026-05-04 12:53 39.98235 -0.58633 32669 ft 392 kts 229°
2026-05-04 12:54 39.96420 -0.61289 32232 ft 392 kts 229°
2026-05-04 12:54 39.94602 -0.63942 31796 ft 393 kts 229°
2026-05-04 12:54 39.92776 -0.66606 31364 ft 394 kts 229°
2026-05-04 12:54 39.90943 -0.69275 30941 ft 395 kts 229°
2026-05-04 12:55 39.89110 -0.71947 30521 ft 396 kts 229°
2026-05-04 12:55 39.87275 -0.74622 30112 ft 397 kts 229°
2026-05-04 12:55 39.85435 -0.77305 29707 ft 398 kts 229°
2026-05-04 12:55 39.83590 -0.79987 29231 ft 398 kts 229°
2026-05-04 12:56 39.81742 -0.82670 28755 ft 399 kts 229°
2026-05-04 12:56 39.79885 -0.85360 28259 ft 400 kts 229°
2026-05-04 12:56 39.78018 -0.88061 27803 ft 403 kts 229°
2026-05-04 12:56 39.76164 -0.90736 27364 ft 403 kts 227°
2026-05-04 12:57 39.74093 -0.93173 26934 ft 402 kts 219°
2026-05-04 12:57 39.71730 -0.95119 26484 ft 403 kts 211°
2026-05-04 12:57 39.69135 -0.96518 26057 ft 405 kts 201°
2026-05-04 12:57 39.66373 -0.97329 25638 ft 409 kts 193°
2026-05-04 12:58 39.63515 -0.97523 25227 ft 414 kts 184°
2026-05-04 12:58 39.60634 -0.97162 24818 ft 416 kts 180°
2026-05-04 12:58 39.57767 -0.96725 24419 ft 414 kts 180°
2026-05-04 12:58 39.54916 -0.96298 24000 ft 412 kts 180°
2026-05-04 12:59 39.52072 -0.95880 23607 ft 409 kts 180°
2026-05-04 12:59 39.49274 -0.95468 23159 ft 399 kts 180°
2026-05-04 12:59 39.46549 -0.95065 22729 ft 389 kts 180°
2026-05-04 12:59 39.43896 -0.94673 22356 ft 378 kts 180°
2026-05-04 13:00 39.41312 -0.94290 21994 ft 369 kts 180°
2026-05-04 13:00 39.38791 -0.93916 21625 ft 361 kts 180°
2026-05-04 13:00 39.36322 -0.93552 21263 ft 353 kts 180°
2026-05-04 13:00 39.33936 -0.93203 20883 ft 345 kts 180°
2026-05-04 13:01 39.31583 -0.92858 20537 ft 337 kts 181°
2026-05-04 13:01 39.29269 -0.92521 20194 ft 332 kts 181°
2026-05-04 13:01 39.26992 -0.92191 19851 ft 327 kts 181°
2026-05-04 13:01 39.24745 -0.91869 19512 ft 322 kts 181°
2026-05-04 13:02 39.22534 -0.91550 19166 ft 318 kts 181°
2026-05-04 13:02 39.20347 -0.91236 18834 ft 314 kts 181°
2026-05-04 13:02 39.18188 -0.90926 18506 ft 311 kts 181°
2026-05-04 13:02 39.16044 -0.90620 18172 ft 308 kts 181°
2026-05-04 13:03 39.13921 -0.90313 17809 ft 307 kts 181°
2026-05-04 13:03 39.11806 -0.90006 17423 ft 305 kts 181°
2026-05-04 13:03 39.09699 -0.89700 17048 ft 304 kts 181°
2026-05-04 13:03 39.07606 -0.89395 16697 ft 303 kts 181°
2026-05-04 13:04 39.05514 -0.89093 16337 ft 302 kts 181°
2026-05-04 13:04 39.03430 -0.88790 15972 ft 301 kts 181°
2026-05-04 13:04 39.01354 -0.88489 15626 ft 299 kts 180°
2026-05-04 13:04 38.99318 -0.88195 15284 ft 298 kts 180°
2026-05-04 13:05 38.97265 -0.87900 14948 ft 296 kts 180°
2026-05-04 13:05 38.95218 -0.87605 14634 ft 295 kts 180°
2026-05-04 13:05 38.93183 -0.87313 14322 ft 294 kts 180°
2026-05-04 13:05 38.91151 -0.87019 14016 ft 294 kts 180°
2026-05-04 13:06 38.89123 -0.86725 13708 ft 293 kts 180°
2026-05-04 13:06 38.87103 -0.86429 13342 ft 291 kts 180°
2026-05-04 13:06 38.85096 -0.86138 13003 ft 290 kts 180°
2026-05-04 13:06 38.83092 -0.85850 12667 ft 288 kts 180°
2026-05-04 13:07 38.81104 -0.85565 12331 ft 287 kts 180°
2026-05-04 13:07 38.79150 -0.85282 11998 ft 277 kts 180°
2026-05-04 13:07 38.77255 -0.85006 11689 ft 273 kts 180°
2026-05-04 13:07 38.75372 -0.84736 11390 ft 271 kts 180°
2026-05-04 13:08 38.73501 -0.84469 11095 ft 270 kts 179°
2026-05-04 13:08 38.71642 -0.84203 10798 ft 268 kts 179°
2026-05-04 13:08 38.69812 -0.83939 10514 ft 267 kts 179°
2026-05-04 13:08 38.67974 -0.83674 10226 ft 265 kts 179°
2026-05-04 13:09 38.66145 -0.83416 9940 ft 263 kts 179°
2026-05-04 13:09 38.64335 -0.83159 9622 ft 261 kts 179°
2026-05-04 13:09 38.62562 -0.82902 9308 ft 251 kts 179°
2026-05-04 13:09 38.60849 -0.82653 8995 ft 246 kts 179°
2026-05-04 13:10 38.59155 -0.82412 8685 ft 244 kts 179°
2026-05-04 13:10 38.57469 -0.82175 8382 ft 243 kts 179°
2026-05-04 13:10 38.55786 -0.81937 8081 ft 243 kts 179°
2026-05-04 13:10 38.54124 -0.81476 7954 ft 250 kts 158°
2026-05-04 13:11 38.52777 -0.80082 7958 ft 258 kts 134°
2026-05-04 13:11 38.51823 -0.78116 7958 ft 264 kts 118°
2026-05-04 13:11 38.51090 -0.75960 7949 ft 266 kts 110°
2026-05-04 13:11 38.50722 -0.73637 7950 ft 268 kts 101°
2026-05-04 13:12 38.50451 -0.71284 7951 ft 268 kts 101°
2026-05-04 13:12 38.50275 -0.69692 7953 ft 268 kts 101°
2026-05-04 13:12 38.50023 -0.67364 7952 ft 268 kts 100°
2026-05-04 13:12 38.49771 -0.65012 7950 ft 268 kts 100°
2026-05-04 13:13 38.49512 -0.62650 7949 ft 268 kts 100°
2026-05-04 13:13 38.49253 -0.60296 7948 ft 268 kts 100°
2026-05-04 13:13 38.48991 -0.57937 7949 ft 268 kts 100°
2026-05-04 13:13 38.48728 -0.55572 7948 ft 269 kts 100°
2026-05-04 13:14 38.48465 -0.53237 7948 ft 269 kts 100°
2026-05-04 13:14 38.48200 -0.50878 7947 ft 268 kts 100°
2026-05-04 13:14 38.47957 -0.48479 7948 ft 269 kts 97°
2026-05-04 13:14 38.47806 -0.46125 7949 ft 270 kts 96°
2026-05-04 13:15 38.47689 -0.43739 7949 ft 269 kts 95°
2026-05-04 13:15 38.47582 -0.41355 7949 ft 269 kts 95°
2026-05-04 13:15 38.47474 -0.38962 7950 ft 269 kts 95°
2026-05-04 13:15 38.47360 -0.36583 7948 ft 269 kts 96°
2026-05-04 13:16 38.47240 -0.34204 7952 ft 269 kts 96°
2026-05-04 13:16 38.47118 -0.31826 7951 ft 269 kts 96°
2026-05-04 13:16 38.46994 -0.29441 7951 ft 269 kts 96°
2026-05-04 13:16 38.46836 -0.27061 7948 ft 268 kts 104°
2026-05-04 13:17 38.46113 -0.24934 7951 ft 260 kts 132°
2026-05-04 13:17 38.44782 -0.23472 7951 ft 250 kts 158°
2026-05-04 13:17 38.43153 -0.22883 7952 ft 241 kts 182°
2026-05-04 13:17 38.41480 -0.22880 7953 ft 241 kts 185°
2026-05-04 13:18 38.39794 -0.22886 7746 ft 243 kts 185°
2026-05-04 13:18 38.38110 -0.22690 7424 ft 244 kts 172°
2026-05-04 13:18 38.36456 -0.22210 7123 ft 243 kts 172°
2026-05-04 13:18 38.34834 -0.21744 6842 ft 242 kts 171°
2026-05-04 13:19 38.33196 -0.21276 6548 ft 241 kts 171°
2026-05-04 13:19 38.31560 -0.20824 6256 ft 240 kts 175°
2026-05-04 13:19 38.29919 -0.20801 5953 ft 234 kts 192°
2026-05-04 13:19 38.28344 -0.21284 5568 ft 234 kts 198°
2026-05-04 13:20 38.26761 -0.21818 5142 ft 237 kts 197°
2026-05-04 13:20 38.25212 -0.22513 4727 ft 235 kts 216°
2026-05-04 13:20 38.24170 -0.24062 4302 ft 232 kts 249°
2026-05-04 13:20 38.24003 -0.26047 3885 ft 227 kts 278°
2026-05-04 13:21 38.24317 -0.28002 3468 ft 224 kts 279°
2026-05-04 13:21 38.24602 -0.29952 3054 ft 224 kts 278°
2026-05-04 13:21 38.24870 -0.31870 2619 ft 216 kts 279°
2026-05-04 13:21 38.25123 -0.33689 2460 ft 198 kts 279°
2026-05-04 13:22 38.25359 -0.35377 2450 ft 185 kts 278°
2026-05-04 13:22 38.25569 -0.36946 2167 ft 172 kts 278°
2026-05-04 13:22 38.25765 -0.38349 2082 ft 155 kts 279°
2026-05-04 13:22 38.25971 -0.39657 1951 ft 148 kts 278°
2026-05-04 13:23 38.26165 -0.40932 1758 ft 146 kts 278°
2026-05-04 13:23 38.26328 -0.42197 1658 ft 145 kts 276°
2026-05-04 13:23 38.26494 -0.43465 1479 ft 145 kts 278°
2026-05-04 13:23 38.26677 -0.44727 1240 ft 145 kts 278°
2026-05-04 13:24 38.26872 -0.45971 1098 ft 143 kts 278°
2026-05-04 13:24 38.27031 -0.47228 1017 ft 144 kts 277°
2026-05-04 13:24 38.27189 -0.48492 831 ft 145 kts 278°
2026-05-04 13:25 38.27554 -0.51025 396 ft 145 kts 276°
2026-05-04 13:25 38.27727 -0.52310 224 ft 150 kts 277°
2026-05-04 13:25 38.27910 -0.53612 122 ft 148 kts 277°
2026-05-04 13:25 38.28093 -0.54892 73 ft 140 kts 278°
2026-05-04 13:26 38.28227 -0.55913 104 ft 95 kts 280°
2026-05-04 13:26 38.28317 -0.56569 123 ft 49 kts 282°
2026-05-04 13:26 38.28414 -0.56822 133 ft 25 kts 309°
2026-05-04 13:26 38.28504 -0.56937 133 ft 15 kts 336°
2026-05-04 13:27 38.28542 -0.56849 123 ft 17 kts 102°
2026-05-04 13:27 38.28515 -0.56671 120 ft 24 kts 100°
2026-05-04 13:27 38.28483 -0.56456 110 ft 27 kts 100°
2026-05-04 13:27 38.28452 -0.56221 100 ft 29 kts 100°
2026-05-04 13:28 38.28421 -0.56013 98 ft 21 kts 97°
2026-05-04 13:28 38.28414 -0.55883 99 ft 5 kts 56°
2026-05-04 13:28 38.28448 -0.55868 98 ft 6 kts 11°
2026-05-04 13:28 38.28469 -0.55863 97 ft 0 kts 11°